Regional Weather Roundup
Issued by NWS

Home | Current Version | Previous Version | Text Only | Print | Product List | Glossary Off
Versions: 1 2 3 4 5 6 7 8 9 10 11 12 13 14 15 16 17 18 19 20 21 22 23 24 25 26 27 28 29 30 31 32 33 34 35 36 37 38 39 40 41 42 43 44 45 46 47 48 49 50

000
ASUS44 KMEG 080610
RWRTN
TENNESSEE HOURLY STATE WEATHER ROUNDUP
NATIONAL WEATHER SERVICE MEMPHIS TN
100 AM CDT WED JUL 08 2015

TNZ002-004-019-021-049-052-054-088>092-080700-
WEST TENNESSEE

CITY           SKY/WX    TMP DP  RH WIND       PRES   REMARKS
MEMPHIS INTL   CLOUDY    81  74  79 S9G20     30.05S
NWS MEMPHIS      N/A     80 N/A N/A MISG        N/A
JACKSON        MOCLDY    74  70  87 VRB3      30.06F
DYERSBURG        N/A    N/A N/A N/A MISG        N/A
PARIS          CLEAR     70  68  94 CALM      30.06F
LEXINGTON      CLEAR     72  72 100 CALM      30.06F
$$

TNZ008-025-027-028-033-062-065-066-080700-
NORTH MIDDLE TENNESSEE

CITY           SKY/WX    TMP DP  RH WIND       PRES   REMARKS
NASHVILLE      CLOUDY    72  71  97 CALM      30.10F FOG
CLARKSVILLE    CLOUDY    72  70  93 CALM      30.06F
SMYRNA         LGT RAIN  71  70  97 CALM      30.11F
COOKEVILLE     PTCLDY    72  70  94 E5        30.13F
CROSSVILLE     LGT RAIN  72  67  84 NW7       30.20R
$$

TNZ061-075-076-078-094-096-097-080700-
SOUTH MIDDLE TENNESSEE

CITY           SKY/WX    TMP DP  RH WIND       PRES   REMARKS
FAYETTEVILLE   CLEAR     75  72  88 S3        30.13F
TULLAHOMA      CLEAR     73  70  88 S3        30.14F
WINCHESTER     CLEAR     75  70  83 SE5       30.14F
MCMINNVILLE    PTCLDY    77  73  88 VRB3      30.13F
COLUMBIA       PTCLDY    77  73  88 N5        30.08F
SHELBYVILLE    PTCLDY    77  73  88 S5          N/A
$$

TNZ017-018-042-046-047-080700-
NORTHEAST TENNESSEE

CITY           SKY/WX    TMP DP  RH WIND       PRES   REMARKS
TRI CITIES     CLOUDY    76  66  71 SW15      30.16R
ELIZABETHTON   MOCLDY    66  64  94 CALM      30.17S
$$

TNZ012-013-036-069-073-074-080700-
CENTRAL EAST TENNESSEE

CITY           SKY/WX    TMP DP  RH WIND       PRES   REMARKS
KNOXVILLE      MOCLDY    75  66  73 CALM      30.13S
OAK RIDGE      CLOUDY    72  69  90 CALM      30.15S
GATLINBURG     PTCLDY    72  64  78 CALM      30.15S
MORRISTOWN     CLEAR     70  68  94 S3        30.17S
$$

TNZ083-085-099-080700-
SOUTHEAST TENNESSEE

CITY           SKY/WX    TMP DP  RH WIND       PRES   REMARKS
CHATTANOOGA    PTCLDY    77  72  84 SW5       30.14F
$$

SKY/WX REPORTED AS FAIR MEANS FEW OR NO CLOUDS BELOW
12 THOUSAND FEET.



USA.gov is the U.S. government's official web portal to all federal, state and local government web resources and services.